Location: Cicognara
(44.9500°N, 10.4667°E)
Time: 02:56:19
(UTC+00:00)

Cosmos 1626 Rocket - Visible Passes

Search period start: 23 October 2021 00:00
Search period end: 02 November 2021 00:00
Orbit: 602 x 632 km, 82.5° (Epoch: 22 October)

Date Brightness Start Highest point End Pass type
(mag) Time Alt. Az. Time Alt. Az. Time Alt. Az.
23 Oct 4.1 18:05:38 10° NNW 18:09:53 57° W 18:14:06 10° S visible
24 Oct 4.6 16:45:02 10° NNE 16:48:34 24° ENE 16:52:04 10° SE visible
24 Oct 5.4 18:22:36 10° NNW 18:26:26 31° W 18:30:14 10° SSW visible
25 Oct 3.9 17:01:17 10° N 17:05:23 41° ENE 17:09:29 10° SSE visible
25 Oct 6.3 18:39:56 10° NW 18:42:53 18° W 18:45:48 10° SW visible
26 Oct 3.4 17:17:46 10° N 17:22:07 76° E 17:26:26 10° SSE visible
27 Oct 4.2 17:34:29 10° NNW 17:38:45 58° W 17:42:59 10° S visible
28 Oct 5.4 17:51:27 10° NNW 17:55:17 32° W 17:59:07 10° SSW visible
29 Oct 6.8 04:48:37 10° ESE 04:50:47 14° E 04:52:57 10° NE visible
29 Oct 6.4 18:08:46 10° NW 18:11:44 18° W 18:14:43 10° SW visible
30 Oct 6.3 05:03:43 10° SE 05:07:12 24° E 05:10:40 10° NE visible
30 Oct 3.5 16:46:38 10° N 16:50:59 75° E 16:55:18 10° SSE visible
30 Oct 7.1 18:27:38 10° WNW 18:28:06 10° W 18:28:36 10° W visible
31 Oct 5.1 05:19:36 10° SSE 05:23:41 42° E 05:27:47 10° NNE visible
31 Oct 4.2 17:03:20 10° NNW 17:07:36 59° W 17:11:52 10° S visible
01 Nov 5.5 17:20:17 10° NNW 17:24:09 32° W 17:28:01 10° SSW visible
